Regional Weather Roundup
Issued by NWS Jackson, KY

Home | Current Version | Previous Version | Graphics & Text | Print | Product List | Glossary On
Versions: 1 2 3 4 5 6 7 8 9 10 11 12 13 14 15 16 17 18 19 20 21 22 23 24 25 26 27 28 29 30 31 32 33 34 35 36 37 38 39 40 41 42 43 44 45 46 47 48 49 50
000
ASUS43 KJKL 062010
RWRJKL

EAST KENTUCKY HOURLY WEATHER ROUNDUP
NATIONAL WEATHER SERVICE JACKSON KY
400 PM EDT MON JUL 06 2015

NOTE: "FAIR" INDICATES FEW OR NO CLOUDS BELOW 12,000 FEET WITH
NO SIGNIFICANT WEATHER AND/OR OBSTRUCTIONS TO VISIBILITY.

* THESE REPORTS ARE NOT UNDER NWS QUALITY CONTROL AND MAY NOT
  REPORT WEATHER SUCH AS PRECIPITATION AND FOG.

KYZ079-080-083-085-087-088-110-112-115-119-120-062100
...EASTERN KENTUCKY...

CITY           SKY/WX    TMP DP  RH WIND       PRES   REMARKS
JACKSON        MOSUNNY   81  69  67 CALM      30.13F
LONDON         MOSUNNY   84  65  52 W9        30.12F
SOMERSET*      SUNNY     81  64  57 W10       30.12F
MONTICELLO*    MOSUNNY   86  69  56 CALM      30.13F HX  90
MIDDLESBORO*   MOSUNNY   84  65  52 W7        30.12F
HARLAN APT*      N/A     81  61  50 CALM      30.14F
HAZARD APT*    MOCLDY    81  66  61 SW6       30.12F
BLACK MTN*       N/A     70  64  83 N1          N/A
PIKEVILLE APT* SUNNY     75  68  78 SW5       30.13F
BIG SANDY*     MOCLDY    78  67  69 SW3       30.12F
MOREHEAD APT*  PTCLDY    82  66  57 SW8       30.12S
$$

KYZ035-036-041-042-044-050-067-078-099-062100
...CENTRAL KENTUCKY...

CITY           SKY/WX    TMP DP  RH WIND       PRES   REMARKS
MT STERLING*   MOSUNNY   82  68  61 W3        30.11F
FLEMING/MASON* MOSUNNY   81  64  57 W8        30.09
DANVILLE*      SUNNY     82  66  57 W6        30.10F
RICHMOND*      MOSUNNY   82  64  54 W8        30.10F
LEXINGTON      PTSUNNY   82  68  62 SW9       30.08F
FRANKFORT      SUNNY     84  66  54 SW9       30.06F
$$

KYZ091>093-OHZ055-061-077-WVZ005-015-034-035-042-062100
...SOUTHERN OHIO/WEST VIRGINIA...

CITY           SKY/WX    TMP DP  RH WIND       PRES   REMARKS
COVINGTON      MOSUNNY   84  66  54 W9        30.06F
COLUMBUS       MOSUNNY   84  66  54 W10G18    30.03F
DAYTON         MOSUNNY   83  64  52 W3        30.06F
WILMINGTON     SUNNY     81  61  50 W12       30.07F
HUNTINGTON     MOSUNNY   82  67  60 W9        30.07S
CHARLESTON     PTSUNNY   79  68  69 VRB7      30.08F
PINEVILLE*     CLOUDY    73  69  88 MISG      30.20F
BECKLEY        CLOUDY    71  63  75 W8        30.17S
BLUEFIELD      LGT RAIN  70  63  78 W12       30.20S
$$

VAZ002-007-008-TNZ017-027-036-066-071-062100
...SOUTHWEST VIRGINIA/EAST TENNESSEE...

CITY           SKY/WX    TMP DP  RH WIND       PRES   REMARKS
WISE*          CLOUDY    73  61  64 W5        30.22S
JONESVILLE*      N/A    N/A N/A N/A MISG        N/A
ABINGDON*      CLOUDY    75  66  75 NW3       30.18S
BRISTOL        MOSUNNY   82  63  52 W9        30.15R
KNOXVILLE      PTSUNNY   83  66  56 SW10      30.12F
OAK RIDGE      MOSUNNY   85  68  56 S7        30.12F
CROSSVILLE     MOSUNNY   82  65  56 W9        30.17F
NASHVILLE      PTSUNNY   84  70  62 SW6       30.10F
$$

...KEY TO REMARKS...
VSB - VISIBILITY IN MILES
WCI - WIND CHILL INDEX
HX  - HEAT INDEX

$$



USA.gov is the U.S. government's official web portal to all federal, state and local government web resources and services.